Content
SEND FEEDBACK

Daily
Averages
Monthly
Summary
United States of America

WALNUT GROVE, ALABAMA


Home > North America > United States > Alabama
Elevation: 26 meters     Latitude: 34 04N     Longitude: 086 19W

WEATHER
 
SELECT A DAY
Number of Records: 204,990;   Date Range: 3/15/06 - 8/17/14
 
SHARE

PRINT THIS DATA

[ ← Previous Day ]
WEATHER ALMANAC - 14 MARCH, 2014
[ Next Day → ]
[ °F ]   °C
Weather ElementAverageHighLow
Barometer1021.3 hPa1024.4 hPa (8:55 am)1018.3 hPa (4:35 pm)
Wind Speed13 km/h25.9 km/h (4:15 pm)
Wind Gust37 km/h (4:15 pm)
Weather ElementAverage
Visibility16.1 km
Wind DirectionS (183 °)

Weather ElementTotal
Precipitation---
Heating Degree Days36.1 (Base 18.3)
Averaged from 71 records on 14 March, 2014
WEATHER CONDITIONS BREAKOUT
WIND DIRECTION BREAKOUT
WEATHER BY HOUR - 14 MARCH, 2014
[ °F ]   °C
Local TimeTemperatureDewpointHumidityBarometerVisibilityWind DirectionWind SpeedGust SpeedPrecipitationEventsConditions
12:35 AM-17.8 °C-17.8 °C1023 hPa16.1 kmSSE (150°)9.3 km/hClear
12:55 AM-17.8 °C-17.8 °C1023 hPa16.1 kmSE (140°)9.3 km/hClear
1:15 AM-17.8 °C-17.8 °C1022.7 hPa16.1 kmSE (140°)9.3 km/hClear
1:35 AM-17.8 °C-17.8 °C1023 hPa16.1 kmSSE (150°)9.3 km/hClear
1:55 AM-17.8 °C-17.8 °C1023 hPa16.1 kmSE (140°)9.3 km/hClear
2:15 AM-17.8 °C-17.8 °C1022.7 hPa16.1 kmSE (140°)13 km/hScattered Clouds
2:35 AM-17.8 °C-17.8 °C1022.7 hPa16.1 kmSE (140°)11.1 km/hScattered Clouds
2:55 AM-17.8 °C-17.8 °C1022.7 hPa16.1 kmSSE (150°)11.1 km/hScattered Clouds
3:15 AM-17.8 °C-17.8 °C1022.7 hPa16.1 kmSE (140°)9.3 km/hClear
3:35 AM-17.8 °C-17.8 °C1022.4 hPa16.1 kmSE (140°)9.3 km/hClear
3:55 AM-17.8 °C-17.8 °C1022.4 hPa16.1 kmSE (140°)9.3 km/hScattered Clouds
4:15 AM-17.8 °C-17.8 °C1022.4 hPa16.1 kmSE (140°)9.3 km/hClear
4:35 AM-17.8 °C-17.8 °C1022.4 hPa16.1 kmSE (140°)9.3 km/hClear
4:55 AM-17.8 °C-17.8 °C1022.4 hPa16.1 kmSE (140°)11.1 km/hScattered Clouds
5:15 AM-17.8 °C-17.8 °C1022.4 hPa16.1 kmSE (140°)11.1 km/hClear
5:35 AM-17.8 °C-17.8 °C1022.7 hPa16.1 kmSE (140°)9.3 km/hScattered Clouds
5:55 AM-17.8 °C-17.8 °C1022.7 hPa16.1 kmSE (140°)9.3 km/hScattered Clouds
6:15 AM-17.8 °C-17.8 °C1023 hPa16.1 kmSSE (150°)7.4 km/hClear
6:35 AM-17.8 °C-17.8 °C1022.7 hPa16.1 kmSSE (150°)9.3 km/hClear
6:55 AM-17.8 °C-17.8 °C1022.7 hPa16.1 kmSSE (150°)9.3 km/hClear
7:15 AM-17.8 °C-17.8 °C1023 hPa16.1 kmSSE (160°)7.4 km/hClear
7:35 AM-17.8 °C-17.8 °C1023 hPa16.1 kmSSE (160°)7.4 km/hClear
7:55 AM-17.8 °C-17.8 °C1023.4 hPa16.1 kmSSE (150°)7.4 km/hClear
8:15 AM-17.8 °C-17.8 °C1023.7 hPa16.1 kmSSE (160°)7.4 km/hClear
8:35 AM-17.8 °C-17.8 °C1024 hPa16.1 kmSouth (170°)7.4 km/hClear
8:55 AM-17.8 °C-17.8 °C1024.4 hPa16.1 kmSouth (170°)11.1 km/hClear
9:15 AM-17.8 °C-17.8 °C1024.4 hPa16.1 kmSouth (190°)9.3 km/hClear
9:35 AM-17.8 °C-17.8 °C1024.4 hPa16.1 kmSouth (190°)18.5 km/hClear
9:55 AM-17.8 °C-17.8 °C1024.4 hPa16.1 kmSouth (170°)16.7 km/h25.9 km/hClear
10:15 AM-17.8 °C-17.8 °C1024 hPa16.1 kmSouth (170°)18.5 km/hClear
10:35 AM-17.8 °C-17.8 °C1024 hPa16.1 kmSouth (170°)16.7 km/hClear
10:55 AM-17.8 °C-17.8 °C1024 hPa16.1 kmSouth (190°)14.8 km/hClear
11:15 AM-17.8 °C-17.8 °C1023.7 hPa16.1 kmSouth (180°)14.8 km/hClear
11:35 AM-17.8 °C-17.8 °C1023.4 hPa16.1 kmSouth (170°)20.4 km/h27.8 km/hClear
11:55 AM-17.8 °C-17.8 °C1023 hPa16.1 kmSouth (180°)16.7 km/hClear
12:15 PM-17.8 °C-17.8 °C1023 hPa16.1 kmSSW (200°)20.4 km/h31.5 km/hClear
12:35 PM-17.8 °C-17.8 °C1022.7 hPa16.1 kmSouth (180°)22.2 km/h31.5 km/hClear
12:55 PM-17.8 °C-17.8 °C1022 hPa16.1 kmSSW (200°)22.2 km/h35.2 km/hClear
1:15 PM-17.8 °C-17.8 °C1021.7 hPa16.1 kmSouth (170°)11.1 km/h35.2 km/hClear
1:35 PM-17.8 °C-17.8 °C1021 hPa16.1 kmSSW (200°)18.5 km/h25.9 km/hClear
1:55 PM-17.8 °C-17.8 °C1020.7 hPa16.1 kmSSW (200°)13 km/h25.9 km/hClear
2:15 PM-17.8 °C-17.8 °C1020.3 hPa16.1 kmSouth (180°)22.2 km/h27.8 km/hClear
2:35 PM-17.8 °C-17.8 °C1020 hPa16.1 kmSouth (190°)24.1 km/h29.6 km/hClear
2:55 PM-17.8 °C-17.8 °C1019.6 hPa16.1 kmSouth (190°)18.5 km/h31.5 km/hClear
3:15 PM-17.8 °C-17.8 °C1019.6 hPa16.1 kmWSW (240°)20.4 km/h35.2 km/hClear
3:35 PM-17.8 °C-17.8 °C1019 hPa16.1 kmSW (220°)22.2 km/h33.3 km/hClear
3:55 PM-17.8 °C-17.8 °C1019 hPa16.1 kmSSW (200°)22.2 km/h35.2 km/hClear
4:15 PM-17.8 °C-17.8 °C1018.6 hPa16.1 kmSSW (210°)25.9 km/h37 km/hClear
4:35 PM-17.8 °C-17.8 °C1018.3 hPa16.1 kmSSW (210°)24.1 km/h29.6 km/hClear
4:55 PM-17.8 °C-17.8 °C1018.3 hPa16.1 kmSSW (200°)14.8 km/hClear
5:15 PM-17.8 °C-17.8 °C1018.3 hPa16.1 kmSW (220°)20.4 km/h31.5 km/hScattered Clouds
5:35 PM-17.8 °C-17.8 °C1018.6 hPa16.1 kmSW (220°)18.5 km/h31.5 km/hMostly Cloudy
5:55 PM-17.8 °C-17.8 °C1019 hPa16.1 kmSW (220°)13 km/hMostly Cloudy
6:15 PM-17.8 °C-17.8 °C1019.3 hPa16.1 kmSW (220°)11.1 km/hScattered Clouds
6:35 PM-17.8 °C-17.8 °C1019.3 hPa16.1 kmSW (220°)11.1 km/hMostly Cloudy
6:55 PM-17.8 °C-17.8 °C1019.6 hPa16.1 kmWSW (240°)13 km/h25.9 km/hMostly Cloudy
7:15 PM-17.8 °C-17.8 °C1020 hPa16.1 kmWest (260°)11.1 km/hOvercast
7:35 PM-17.8 °C-17.8 °C1020 hPa16.1 kmSW (230°)9.3 km/hOvercast
7:55 PM-17.8 °C-17.8 °C1020 hPa16.1 kmSSW (210°)13 km/hMostly Cloudy
8:15 PM-17.8 °C-17.8 °C1019.6 hPa16.1 kmSW (220°)9.3 km/hMostly Cloudy
8:35 PM-17.8 °C-17.8 °C1020.3 hPa16.1 kmWest (260°)7.4 km/hOvercast
8:55 PM-17.8 °C-17.8 °C1020 hPa16.1 kmSW (220°)5.6 km/hMostly Cloudy
9:15 PM-17.8 °C-17.8 °C1020 hPa16.1 kmSSW (210°)9.3 km/hScattered Clouds
9:35 PM-17.8 °C-17.8 °C1020.3 hPa16.1 kmSW (220°)9.3 km/hScattered Clouds
9:55 PM-17.8 °C-17.8 °C1020 hPa16.1 kmSSW (200°)7.4 km/hMostly Cloudy
10:15 PM-17.8 °C-17.8 °C1020 hPa16.1 kmSSW (210°)14.8 km/h27.8 km/hOvercast
10:35 PM-17.8 °C-17.8 °C1019.6 hPa16.1 kmSW (220°)16.7 km/h27.8 km/hOvercast
10:55 PM-17.8 °C-17.8 °C1019.3 hPa16.1 kmSSW (200°)9.3 km/hOvercast
11:15 PM-17.8 °C-17.8 °C1019.3 hPa16.1 kmSouth (170°)7.4 km/hOvercast
11:35 PM-17.8 °C-17.8 °C1019.3 hPa16.1 kmSouth (180°)7.4 km/hOvercast
11:55 PM-17.8 °C-17.8 °C1019 hPa16.1 kmSSW (210°)5.6 km/hMostly Cloudy
Hourly data recorded from K8A0, located 0 kilometers away from Walnut Grove, Alabama







STORIES FROM OUR PARTNERS